Find Local Weather

World > North America > United States > North Dakota

Ross, North Dakota Regional Weather

Lat: 48.31N, Lon: 102.55W
Wx Zone: NDZ010
Feedback

Ross, ND Regional Weather

Expires:201905202200;;186931
ASUS43 KBIS 202110
RWRND 

NORTH DAKOTA REGIONAL WEATHER ROUNDUP
NATIONAL WEATHER SERVICE BISMARCK ND
400 PM CDT MON MAY 20 2019

NOTE: "FAIR" INDICATES FEW OR NO CLOUDS BELOW 12,000 FEET WITH NO
SIGNIFICANT WEATHER AND/OR OBSTRUCTIONS TO VISIBILITY.



NDZ001>003-009>011-017-202200-
NORTHWEST NORTH DAKOTA
  
CITY           SKY/WX    TMP DP  RH WIND       PRES   REMARKS
WILLISTON      SUNNY     63  26  24 SE14G32   30.05F                  
MINOT          SUNNY     68  26  20 E17G24    30.07F                  
MINOT AFB      SUNNY     66  28  24 E13G24    30.06F                  
$$
 

SKY/WX - Weather  TMP - Temperature  DP - Dew Point  RH - Relative Humidity
WIND - Wind Direction/Speed PRES - Barometric Pressure VSB - Visibility
WCI - Wind Chill Index E13G22 Wind - East Wind 13 mph/Gusts of 22 mph